Key West Weather Center

Moon Phase Calendar



Online Cameras

 


      

Current Conditions in Key West
11/24/2020 6:39:44 AM

71°F
Feels Like 71
Clear
Humidity
83%
Pressure
30.06"
Wind
10.3 mph (NNE)
Dew Point
66°F
UV Index
6/10 (High)
Visibility
6 mi

Hourly Forecast

Date & Time Tue, Nov 24
6:00 AM
Tue, Nov 24
7:00 AM
Tue, Nov 24
8:00 AM
Tue, Nov 24
9:00 AM
Tue, Nov 24
10:00 AM
Tue, Nov 24
11:00 AM
Tue, Nov 24
12:00 PM
Tue, Nov 24
1:00 PM
Tue, Nov 24
2:00 PM
Tue, Nov 24
3:00 PM
Tue, Nov 24
4:00 PM
Tue, Nov 24
5:00 PM
Tue, Nov 24
6:00 PM
Tue, Nov 24
7:00 PM
Tue, Nov 24
8:00 PM
Tue, Nov 24
9:00 PM
Tue, Nov 24
10:00 PM
Tue, Nov 24
11:00 PM
Wed, Nov 25
12:00 AM
Wed, Nov 25
1:00 AM
Wed, Nov 25
2:00 AM
Wed, Nov 25
3:00 AM
Wed, Nov 25
4:00 AM
Wed, Nov 25
5:00 AM
Wed, Nov 25
6:00 AM
Wed, Nov 25
7:00 AM
Wed, Nov 25
8:00 AM
Wed, Nov 25
9:00 AM
Wed, Nov 25
10:00 AM
Wed, Nov 25
11:00 AM
Wed, Nov 25
12:00 PM
Wed, Nov 25
1:00 PM
Wed, Nov 25
2:00 PM
Wed, Nov 25
3:00 PM
Wed, Nov 25
4:00 PM
Wed, Nov 25
5:00 PM
Wed, Nov 25
6:00 PM
Wed, Nov 25
7:00 PM
Wed, Nov 25
8:00 PM
Wed, Nov 25
9:00 PM
Wed, Nov 25
10:00 PM
Wed, Nov 25
11:00 PM
Thu, Nov 26
12:00 AM
Thu, Nov 26
1:00 AM
Thu, Nov 26
2:00 AM
Thu, Nov 26
3:00 AM
Thu, Nov 26
4:00 AM
Thu, Nov 26
5:00 AM
Condition
Clear

Clear

Clouds

Clouds

Clouds

Clouds

Clouds

Rain

Rain

Clear

Clear

Clear

Clear

Clear

Clouds

Clouds

Rain

Clear

Clear

Rain

Rain

Clear

Clear

Clear

Clear

Clear

Clear

Clear

Clear

Clear

Clear

Clear

Clear

Clear

Clear

Clear

Clear

Clear

Rain

Clear

Rain

Rain

Clear

Rain

Rain

Rain

Clouds

Clear
Temperature 71°F73°F74°F75°F75°F76°F77°F77°F78°F78°F78°F78°F78°F78°F78°F78°F78°F78°F78°F78°F78°F78°F78°F78°F78°F78°F78°F78°F78°F78°F79°F79°F79°F78°F78°F78°F77°F77°F77°F77°F77°F77°F77°F77°F77°F76°F76°F76°F
Feels Like 66°F67°F69°F69°F70°F71°F73°F72°F72°F71°F71°F72°F72°F72°F72°F73°F73°F73°F74°F75°F74°F74°F74°F75°F75°F75°F75°F76°F76°F77°F77°F77°F77°F75°F74°F74°F73°F73°F72°F73°F73°F72°F72°F72°F72°F72°F72°F72°F
Cloudiness 1%6%28%23%19%25%32%31%1%0%0%0%0%7%20%12%8%6%6%8%8%4%5%8%10%10%5%3%2%2%3%2%0%0%0%0%1%1%0%6%5%7%10%16%31%17%12%9%
Visibility 6 mi6 mi6 mi6 mi6 mi6 mi6 mi6 mi6 mi6 mi6 mi6 mi6 mi6 mi6 mi6 mi6 mi6 mi6 mi6 mi6 mi6 mi6 mi6 mi6 mi6 mi6 mi6 mi6 mi6 mi6 mi6 mi6 mi6 mi6 mi6 mi6 mi6 mi6 mi6 mi6 mi6 mi6 mi6 mi6 mi6 mi6 mi6 mi
Precipitation 0%0%9%13%17%20%20%31%46%46%46%46%46%42%49%45%45%42%49%53%53%58%56%52%50%27%12%13%21%21%21%21%36%16%16%8%8%7%45%57%55%48%45%42%25%25%21%17%
Humidity 83%82%81%81%81%80%79%78%78%78%79%79%79%79%79%79%79%78%77%77%77%78%77%76%76%76%76%75%74%75%74%74%76%79%80%80%81%81%80%79%79%77%76%77%77%77%75%74%
Dew Point 66°F67°F68°F68°F69°F70°F70°F70°F70°F71°F71°F71°F71°F71°F71°F71°F71°F71°F71°F71°F71°F71°F71°F70°F70°F70°F70°F70°F70°F70°F70°F70°F71°F71°F71°F71°F71°F71°F71°F70°F70°F69°F69°F69°F69°F69°F68°F67°F
Pressure 30.06"30.06"30.09"30.12"30.12"30.12"30.12"30.09"30.06"30.06"30.06"30.06"30.09"30.09"30.12"30.12"30.12"30.12"30.12"30.12"30.09"30.09"30.09"30.09"30.09"30.12"30.12"30.15"30.15"30.15"30.15"30.12"30.09"30.09"30.09"30.09"30.09"30.12"30.12"30.15"30.15"30.12"30.12"30.12"30.09"30.09"30.09"30.09"
Wind Speed 20.4 mph21.4 mph21.3 mph21.6 mph21.3 mph20.9 mph21.2 mph22.9 mph24.1 mph24.8 mph25.6 mph25.3 mph24.7 mph24.6 mph24.4 mph23.2 mph23.5 mph23.1 mph21.6 mph20.6 mph22.3 mph21.1 mph20.3 mph19.4 mph18.6 mph19 mph18.8 mph18.1 mph17.2 mph16.3 mph16.2 mph15.5 mph16.5 mph20.4 mph21 mph21.1 mph21.4 mph21.9 mph22.4 mph21.8 mph21.4 mph22 mph21.3 mph20.9 mph20.7 mph20.4 mph19.4 mph18 mph
Wind
Direction
43°
NE
46°
NE
49°
NE
50°
NE
49°
NE
52°
NE
55°
NE
64°
ENE
70°
ENE
73°
ENE
74°
ENE
74°
ENE
75°
ENE
75°
ENE
74°
ENE
77°
ENE
83°
E
85°
E
88°
E
94°
E
102°
ESE
103°
ESE
105°
ESE
107°
ESE
105°
ESE
107°
ESE
106°
ESE
107°
ESE
111°
ESE
113°
ESE
113°
ESE
115°
ESE
106°
ESE
103°
ESE
100°
E
96°
E
95°
E
94°
E
92°
E
92°
E
93°
E
94°
E
95°
E
95°
E
97°
E
96°
E
97°
E
97°
E

Daily Forecast

Date High Low Precip. Humidity
Today
Nov 24

Rain
78 °F
71 °F
46%
78%
Wednesday
Nov 25

Rain
79 °F
77 °F
56%
74%
Thursday
Nov 26

Rain
77 °F
76 °F
42%
70%
Friday
Nov 27

Rain
77 °F
76 °F
34%
74%
Saturday
Nov 28

Clear
78 °F
76 °F
0%
63%
Sunday
Nov 29

Clear
78 °F
77 °F
2%
73%
Monday
Nov 30

Rain
78 °F
73 °F
100%
85%
Tuesday
Dec 1

Rain
71 °F
64 °F
39%
52%
Wednesday
Dec 2

Rain
76 °F
71 °F
100%
81%
Thursday
Dec 3

Rain
75 °F
68 °F
100%
76%
Friday
Dec 4

Rain
68 °F
64 °F
27%
74%
Saturday
Dec 5

Rain
65 °F
62 °F
20%
74%
Sunday
Dec 6

Rain
66 °F
64 °F
24%
64%
Monday
Dec 7

Rain
68 °F
64 °F
21%
47%
Tuesday
Dec 8

Clear
73 °F
69 °F
11%
70%
Wednesday
Dec 9

Rain
74 °F
72 °F
51%
76%


Temperature 8-14 Day Outlook



Precipitation 8-14 Day Outlook




Quick Links
Key West News
Key West Photos
Key West Videos




About Us
Contact Us
Site Map
Search Site
Advertise With Us
   
Key-West.CoastalTown.com
THE KEY WEST WEBSITE

Copyright 2020, Coastal Town
Privacy    |    Legal